Regional Weather Roundup
Issued by NWS

Home | Current Version | Previous Version | Text Only | Print | Product List | Glossary On
Versions: 1 2 3 4 5 6 7 8 9 10 11 12 13 14 15 16 17 18 19 20 21 22 23 24 25 26 27 28
000
ASUS44 KLIX 260211
RWRLA
LOUISIANA WEATHER ROUNDUP
NATIONAL WEATHER SERVICE NEW ORLEANS LA
900 PM CDT WED MAY 25 2016

NOTE: "FAIR" INDICATES FEW OR NO CLOUDS BELOW 12,000 FEET WITH NO
      SIGNIFICANT WEATHER AND/OR OBSTRUCTIONS TO VISIBILITY.
      SKY/WX - SKY CONDITION AND SIGNIFICANT WEATHER.
      TMP - AIR TEMPERATURE.    DP   - DEWPOINT TEMPERATURE.
      RH  - RELATIVE HUMIDITY.  PRES - PRESSURE.
      HX  - HEAT INDEX.         WCI  - WIND CHILL INDEX.

*  THESE STATIONS ARE NOT NWS OR FAA STATIONS AND ARE NOT UNDER
   NWS QUALITY CONTROL.

LAZ040-048-061>063-065-066-069-260300-
SOUTHEAST LOUISIANA

CITY           SKY/WX    TMP DP  RH WIND       PRES   REMARKS
N.O. AUDUBON   NOT AVBL
N.O. INTL ARPT MOCLDY    79  72  79 S8        30.10S
N.O. LAKEFRONT CLEAR     79  71  76 SE10      30.11S
N.O. DOWNTOWN* FAIR      80  73  79 SE8       30.11S
RESERVE*       FAIR      80  73  80 SE8       30.10R
SLIDELL        CLEAR     77  72  84 SE5       30.11S
BATON ROUGE    PTCLDY    82  70  66 S7        30.08R
BOOTHVILLE     CLEAR     75  69  81 SE5       30.13S
BELLE CHASSE   MOCLDY    78  73  84 SE8       30.11S
BOGALUSA*      FAIR      78  69  73 SE6       30.13S
GALLIANO*      MOCLDY    79  73  81 SE7       30.10S
NEW ROADS*     FAIR      80  72  77 S7        30.07R
GONZALES*      CLOUDY    81  73  76 S7        30.08R
HAMMOND*       MOCLDY    79  70  73 SE9       30.10S
HOUMA*         PTCLDY    78  74  88 SE9       30.10R
PORT FOURCHON* PTCLDY    79  73  83 SE14G20   30.10F

$$

LAZ041-044-053-054-260300-
SOUTHWEST LOUISIANA

CITY           SKY/WX    TMP DP  RH WIND       PRES   REMARKS
LAKE CHARLES   PTCLDY    79  74  84 S8        30.04R
LAFAYETTE      MOCLDY    80  74  81 S8        30.06S
PATTERSON      CLEAR     78  75  90 SE7       30.09
SALT POINT       N/A     79  76  90 SE6       30.07R
NEW IBERIA     CLOUDY    79  74  84 S8        30.07S
CHENAULT AIRPK NOT AVBL

$$

LAZ027-028-260300-
CENTRAL LOUISIANA

CITY           SKY/WX    TMP DP  RH WIND       PRES   REMARKS
FORT POLK      CLOUDY    80  74  82 SE10      30.01R
ALEXANDRIA INT CLOUDY    81  73  76 S8        30.03R
ALEXANDRIA     CLOUDY    78  73  84 CALM      30.04R

$$

LAZ001-002-260300-
NORTHWEST LOUISIANA

CITY           SKY/WX    TMP DP  RH WIND       PRES   REMARKS
SHREVEPORT     CLOUDY    83  74  74 S9        29.99R
BARKSDALE AFB  CLOUDY    83  73  70 S13       30.00R
DTN SHREVEPORT MOCLDY    83  73  72 SE10      29.99R

$$

LAZ014-016-260300-
NORTHEAST LOUISIANA

CITY           SKY/WX    TMP DP  RH WIND       PRES   REMARKS
MONROE         PTCLDY    83  74  74 SE5       30.03R
TALLULAH       NOT AVBL

$$





USA.gov is the U.S. government's official web portal to all federal, state and local government web resources and services.